When you browse on this site, cookies collect data to enhance your experience and personalize the content and advertising you see.
Visit our Privacy Policy to learn more. By continuing to use the site, you agree to this use of cookies and data.
  • In Czech Republic
  • List of Countries
  • For 7 days
  • Water Temperature
  • Weather Map
  • Weather Widgets
  • user-avatar
    Login

    Hourly Weather Naftalan

    Today, 8 December, Sunday

    Time Temperature Precipitation Wind Pressure Humidity
    00:00 +8°C° 0 mm 3 mps 768 mmHg 70%
    01:00 +8°C° 0 mm 3 mps 768 mmHg 70%
    02:00 +8°C° 0 mm 3 mps 767 mmHg 70%
    03:00 +7°C° 0 mm 3 mps 767 mmHg 69%
    04:00 +7°C° 0 mm 3 mps 767 mmHg 69%
    05:00 +7°C° 0 mm 3 mps 766 mmHg 69%
    06:00 +6°C° 0 mm 4 mps 766 mmHg 69%
    07:00 +6°C° 0 mm 4 mps 765 mmHg 68%
    08:00 +7°C° 0 mm 4 mps 765 mmHg 66%
    09:00 +8°C° 0 mm 3 mps 765 mmHg 64%
    10:00 +9°C° 0 mm 3 mps 765 mmHg 62%
    11:00 +9°C° 0 mm 3 mps 764 mmHg 60%
    12:00 +10°C° 0 mm 3 mps 763 mmHg 57%
    13:00 +10°C° 0 mm 3 mps 763 mmHg 57%
    14:00 +10°C° 0 mm 2 mps 762 mmHg 56%
    15:00 +10°C° 0 mm 2 mps 762 mmHg 54%
    16:00 +11°C° 0 mm 1 mps 762 mmHg 56%
    17:00 +10°C° 0 mm 1 mps 762 mmHg 59%
    18:00 +10°C° 0 mm 1 mps 762 mmHg 61%
    19:00 +10°C° 0.3 mm 1 mps 762 mmHg 66%
    20:00 +8°C° 0.3 mm 2 mps 762 mmHg 71%
    21:00 +8°C° 0.3 mm 3 mps 762 mmHg 76%
    22:00 +8°C° 0.5 mm 3 mps 762 mmHg 78%
    23:00 +8°C° 0.5 mm 3 mps 762 mmHg 79%

    Tomorrow, 9 December, Monday

    Time Temperature Precipitation Wind Pressure Humidity
    00:00 +8°C° 0.5 mm 3 mps 762 mmHg 81%
    01:00 +6°C° 0.7 mm 4 mps 762 mmHg 84%
    02:00 +6°C° 0.7 mm 4 mps 762 mmHg 86%
    03:00 +6°C° 0.7 mm 4 mps 762 mmHg 89%
    04:00 +6°C° 0.5 mm 4 mps 763 mmHg 88%
    05:00 +6°C° 0.5 mm 5 mps 763 mmHg 87%
    06:00 +7°C° 0.5 mm 5 mps 763 mmHg 86%
    07:00 +7°C° 0.2 mm 5 mps 764 mmHg 86%
    08:00 +7°C° 0.2 mm 4 mps 764 mmHg 85%
    09:00 +9°C° 0.2 mm 3 mps 765 mmHg 85%
    10:00 +9°C° 0.2 mm 3 mps 765 mmHg 85%
    11:00 +9°C° 0.2 mm 3 mps 765 mmHg 85%
    12:00 +8°C° 0.2 mm 4 mps 765 mmHg 85%
    13:00 +8°C° 0.1 mm 4 mps 765 mmHg 80%
    14:00 +8°C° 0.1 mm 5 mps 765 mmHg 75%
    15:00 +8°C° 0.1 mm 5 mps 766 mmHg 70%
    16:00 +8°C° 0 mm 5 mps 766 mmHg 73%
    17:00 +8°C° 0 mm 5 mps 766 mmHg 76%
    18:00 +8°C° 0 mm 4 mps 767 mmHg 79%
    19:00 +8°C° 0 mm 4 mps 767 mmHg 79%
    20:00 +8°C° 0 mm 4 mps 767 mmHg 79%
    21:00 +8°C° 0 mm 4 mps 767 mmHg 79%
    22:00 +8°C° 0.1 mm 4 mps 767 mmHg 77%
    23:00 +8°C° 0.1 mm 4 mps 767 mmHg 75%

    Day after tomorrow, 10 December, Tuesday

    Time Temperature Precipitation Wind Pressure Humidity
    00:00 +9°C° 0.1 mm 3 mps 767 mmHg 73%
    01:00 +9°C° 0 mm 3 mps 767 mmHg 75%
    02:00 +10°C° 0 mm 3 mps 767 mmHg 76%
    03:00 +10°C° 0 mm 2 mps 767 mmHg 77%
    04:00 +10°C° 0 mm 3 mps 767 mmHg 78%
    05:00 +10°C° 0 mm 3 mps 768 mmHg 79%
    06:00 +10°C° 0 mm 3 mps 768 mmHg 79%
    07:00 +10°C° 0 mm 3 mps 768 mmHg 79%
    08:00 +11°C° 0 mm 3 mps 768 mmHg 78%
    09:00 +11°C° 0 mm 3 mps 768 mmHg 77%
    10:00 +11°C° 0 mm 3 mps 768 mmHg 76%
    11:00 +12°C° 0 mm 3 mps 768 mmHg 74%
    12:00 +12°C° 0 mm 3 mps 767 mmHg 73%
    13:00 +12°C° 0.1 mm 3 mps 767 mmHg 75%
    14:00 +12°C° 0.1 mm 3 mps 767 mmHg 76%
    15:00 +12°C° 0.1 mm 3 mps 766 mmHg 78%
    16:00 +12°C° 0.2 mm 3 mps 767 mmHg 80%
    17:00 +11°C° 0.2 mm 3 mps 767 mmHg 82%
    18:00 +11°C° 0.2 mm 3 mps 767 mmHg 84%
    19:00 +11°C° 0.2 mm 3 mps 767 mmHg 84%
    20:00 +11°C° 0.2 mm 3 mps 767 mmHg 84%
    21:00 +11°C° 0.2 mm 3 mps 767 mmHg 84%
    22:00 +11°C° 0.1 mm 3 mps 767 mmHg 84%
    23:00 +11°C° 0.1 mm 3 mps 767 mmHg 84%

    11 December, Wednesday

    Time Temperature Precipitation Wind Pressure Humidity
    00:00 +11°C° 0.1 mm 3 mps 766 mmHg 85%
    01:00 +10°C° 0.2 mm 3 mps 766 mmHg 83%
    02:00 +10°C° 0.2 mm 4 mps 766 mmHg 82%
    03:00 +10°C° 0.2 mm 4 mps 766 mmHg 80%
    04:00 +8°C° 0.1 mm 4 mps 766 mmHg 80%
    05:00 +8°C° 0.1 mm 4 mps 766 mmHg 80%
    06:00 +7°C° 0.1 mm 4 mps 766 mmHg 79%
    07:00 +7°C° 0 mm 4 mps 766 mmHg 77%
    08:00 +8°C° 0 mm 4 mps 767 mmHg 75%
    09:00 +8°C° 0 mm 4 mps 767 mmHg 73%
    10:00 +10°C° 0 mm 4 mps 766 mmHg 70%
    11:00 +11°C° 0 mm 4 mps 766 mmHg 67%
    12:00 +12°C° 0 mm 4 mps 766 mmHg 64%
    13:00 +12°C° 0 mm 4 mps 766 mmHg 65%
    14:00 +11°C° 0 mm 3 mps 766 mmHg 65%
    15:00 +11°C° 0 mm 3 mps 766 mmHg 66%
    16:00 +11°C° 0 mm 3 mps 766 mmHg 68%
    17:00 +10°C° 0 mm 3 mps 766 mmHg 71%
    18:00 +10°C° 0 mm 4 mps 767 mmHg 73%
    19:00 +9°C° 0 mm 3 mps 767 mmHg 74%
    20:00 +9°C° 0 mm 3 mps 767 mmHg 74%
    21:00 +9°C° 0 mm 3 mps 767 mmHg 74%
    22:00 +9°C° 0 mm 3 mps 767 mmHg 74%
    23:00 +9°C° 0 mm 2 mps 767 mmHg 75%

    12 December, Thursday

    Time Temperature Precipitation Wind Pressure Humidity
    00:00 +9°C° 0 mm 2 mps 767 mmHg 75%
    01:00 +8°C° 0 mm 2 mps 767 mmHg 75%
    02:00 +9°C° 0 mm 1 mps 767 mmHg 76%
    03:00 +9°C° 0 mm 1 mps 767 mmHg 77%
    04:00 +9°C° 0 mm 1 mps 767 mmHg 77%
    05:00 +9°C° 0 mm 1 mps 767 mmHg 77%
    06:00 +9°C° 0 mm 1 mps 767 mmHg 77%
    07:00 +10°C° 0 mm 1 mps 767 mmHg 75%
    08:00 +11°C° 0 mm 1 mps 767 mmHg 73%
    09:00 +10°C° 0 mm 2 mps 767 mmHg 70%
    10:00 +12°C° 0 mm 2 mps 766 mmHg 69%
    11:00 +12°C° 0 mm 2 mps 766 mmHg 68%
    12:00 +12°C° 0 mm 2 mps 765 mmHg 67%
    13:00 +12°C° 0 mm 2 mps 765 mmHg 67%
    14:00 +12°C° 0 mm 2 mps 764 mmHg 67%
    15:00 +13°C° 0 mm 2 mps 764 mmHg 67%
    16:00 +12°C° 0 mm 2 mps 764 mmHg 69%
    17:00 +11°C° 0 mm 3 mps 764 mmHg 71%
    18:00 +11°C° 0 mm 3 mps 764 mmHg 73%
    19:00 +11°C° 0 mm 3 mps 764 mmHg 73%
    20:00 +12°C° 0 mm 2 mps 763 mmHg 74%
    21:00 +12°C° 0 mm 2 mps 763 mmHg 74%
    22:00 +12°C° 0 mm 2 mps 763 mmHg 75%
    23:00 +11°C° 0 mm 3 mps 763 mmHg 76%

    13 December, Friday

    Time Temperature Precipitation Wind Pressure Humidity
    00:00 +11°C° 0 mm 3 mps 763 mmHg 77%
    01:00 +10°C° 0.1 mm 4 mps 762 mmHg 79%
    02:00 +9°C° 0.1 mm 5 mps 762 mmHg 81%
    03:00 +9°C° 0.1 mm 6 mps 762 mmHg 84%
    04:00 +8°C° 0.1 mm 7 mps 762 mmHg 83%
    05:00 +8°C° 0.1 mm 7 mps 762 mmHg 82%
    06:00 +7°C° 0.1 mm 8 mps 762 mmHg 82%
    07:00 +7°C° 0.2 mm 8 mps 762 mmHg 81%
    08:00 +8°C° 0.2 mm 7 mps 763 mmHg 81%
    09:00 +8°C° 0.2 mm 7 mps 763 mmHg 81%
    10:00 +8°C° 0.3 mm 7 mps 762 mmHg 80%
    11:00 +7°C° 0.3 mm 8 mps 762 mmHg 80%
    12:00 +7°C° 0.3 mm 8 mps 761 mmHg 80%
    13:00 +7°C° 0.2 mm 8 mps 761 mmHg 79%
    14:00 +8°C° 0.2 mm 7 mps 761 mmHg 78%
    15:00 +6°C° 0.2 mm 7 mps 761 mmHg 77%
    16:00 +6°C° 0.1 mm 7 mps 762 mmHg 77%
    17:00 +7°C° 0.1 mm 6 mps 762 mmHg 76%
    18:00 +7°C° 0.1 mm 5 mps 762 mmHg 76%
    19:00 +7°C° 0 mm 5 mps 762 mmHg 74%
    20:00 +7°C° 0 mm 5 mps 763 mmHg 73%
    21:00 +7°C° 0 mm 5 mps 763 mmHg 72%
    22:00 +7°C° 0 mm 4 mps 763 mmHg 74%
    23:00 +7°C° 0 mm 4 mps 763 mmHg 76%
    Show more